TimeCDT,TemperatureF,Dew PointF,Humidity,Sea Level PressureIn,VisibilityMPH,Wind Direction,Wind SpeedMPH,Gust SpeedMPH,PrecipitationIn,Events,Conditions,WindDirDegrees,DateUTC
12:56 AM,57.0,53.1,87,29.88,-9999.0,NNW,3.5,-,N/A,,Clear,330,2013-11-02 05:56:00
1:56 AM,54.0,51.1,90,29.88,-9999.0,NNW,3.5,-,N/A,,Clear,340,2013-11-02 06:56:00
2:56 AM,55.9,50.0,80,29.88,-9999.0,North,3.5,-,N/A,,Clear,350,2013-11-02 07:56:00
3:56 AM,53.1,48.9,86,29.89,-9999.0,NNW,4.6,-,0.01,,Clear,340,2013-11-02 08:56:00
4:56 AM,52.0,48.9,89,29.89,-9999.0,NNW,3.5,-,N/A,,Clear,330,2013-11-02 09:56:00
5:56 AM,51.1,48.0,89,29.91,-9999.0,Calm,Calm,-,N/A,,Clear,0,2013-11-02 10:56:00
6:56 AM,51.1,48.0,89,29.94,-9999.0,NNW,4.6,-,N/A,,Clear,340,2013-11-02 11:56:00
7:56 AM,55.0,50.0,83,29.96,-9999.0,NNW,4.6,-,N/A,,Clear,340,2013-11-02 12:56:00
8:56 AM,61.0,53.1,75,29.98,-9999.0,NNW,4.6,-,N/A,,Clear,330,2013-11-02 13:56:00
9:56 AM,66.9,52.0,59,29.99,-9999.0,Variable,4.6,-,N/A,,Clear,0,2013-11-02 14:56:00
10:56 AM,70.0,50.0,49,29.99,-9999.0,NNW,6.9,-,N/A,,Clear,340,2013-11-02 15:56:00
11:56 AM,73.9,48.9,41,29.98,-9999.0,NNW,4.6,-,N/A,,Clear,330,2013-11-02 16:56:00
12:56 PM,75.9,48.0,37,29.96,-9999.0,NW,10.4,-,N/A,,Clear,320,2013-11-02 17:56:00
1:56 PM,75.0,46.0,36,29.94,-9999.0,NNW,10.4,-,N/A,,Partly Cloudy,330,2013-11-02 18:56:00
2:56 PM,75.9,45.0,33,29.92,-9999.0,NNW,18.4,24.2,N/A,,Clear,330,2013-11-02 19:56:00
3:56 PM,73.9,44.1,34,29.94,-9999.0,North,13.8,18.4,N/A,,Clear,350,2013-11-02 20:56:00
4:56 PM,72.0,45.0,38,29.95,-9999.0,North,9.2,-,N/A,,Clear,360,2013-11-02 21:56:00
5:56 PM,66.0,44.1,45,29.98,-9999.0,NNW,4.6,-,N/A,,Clear,340,2013-11-02 22:56:00
6:56 PM,62.1,45.0,53,30.02,-9999.0,NNW,5.8,-,N/A,,Clear,340,2013-11-02 23:56:00
7:56 PM,60.1,44.1,55,30.06,-9999.0,NNW,4.6,-,N/A,,Clear,340,2013-11-03 00:56:00
8:56 PM,57.9,43.0,58,30.08,-9999.0,NNW,4.6,-,N/A,,Clear,340,2013-11-03 01:56:00
9:56 PM,55.9,42.1,60,30.09,-9999.0,North,3.5,-,N/A,,Clear,350,2013-11-03 02:56:00
10:56 PM,55.0,42.1,62,30.10,-9999.0,NNW,5.8,-,N/A,,Clear,340,2013-11-03 03:56:00
11:56 PM,54.0,41.0,62,30.10,-9999.0,North,6.9,-,N/A,,Clear,350,2013-11-03 04:56:00